Saddell, United Kingdom

6:24 PM GMT on November 12, 2019 (GMT +0000)
Saddell

Weather History for 03111 - October, 2019

Change the Weather History Date:

Monday, October 21, 2019

  Actual Average Record
Temperature  
Mean Temperature 42 °F -  
Max Temperature 50 °F - - ()
Min Temperature 33 °F - - ()
Degree Days  
Heating Degree Days 24    
Moisture  
Dew Point 39 °F    
Average Humidity 73    
Maximum Humidity 86    
Minimum Humidity 55    
Precipitation  
Precipitation 0.00 in - - ()
Sea Level Pressure  
Sea Level Pressure 30.21 in    
Wind  
Wind Speed 6 mph ()    
Max Wind Speed 16 mph    
Max Gust Speed -    
Visibility 18.3 miles    
Events      
T = Trace of Precipitation, MM = Missing Value Source: Averaged Metar Reports

Daily Weather History Graph

Daily Weather History Graph

Search for Another Location

Airport or City:

Astronomy

Oct. 21, 2019 Rise Set
Actual Time 8:04 AM BST 6:09 PM BST
Civil Twilight 7:26 AM BST 6:47 PM BST
Nautical Twilight 6:44 AM BST 7:29 PM BST
Astronomical Twilight 6:01 AM BST 8:11 PM BST
Moon 11:30 PM BST (10/21) 3:51 PM BST (10/21)
Length of Visible Light 11h 20m
Length of Day
10h 05m
Waning Gibbous, 51% of the Moon is Illuminated
Oct 21
Waning Gibbous
Oct 21
Last Quarter
Oct 28
New
Nov 4
First Quarter
Nov 12
Full

Hourly Weather History & Observations

Time (BST) Temp. Dew Point Humidity Pressure Visibility Wind Dir Wind Speed Gust Speed Precip Events Conditions
12:00 AM 36 °F 33 °F 86% 30.23 in 19 mi East 4.6 mph - -  
1:00 AM 49 °F 42 °F 68% 30.12 in 16 mi SW 16.1 mph - -   Overcast
2:00 AM 34 °F 31 °F 86% 30.25 in 19 mi ESE 5.8 mph - -   Scattered Clouds
3:00 AM 36 °F 33 °F 86% 30.24 in 18 mi East 3.5 mph - -   Mostly Cloudy
4:00 AM 39 °F 36 °F 84% 30.25 in 19 mi East 5.8 mph - -   Mostly Cloudy
6:00 AM 41 °F 38 °F 85% 30.23 in 19 mi East 6.9 mph - -   Overcast
7:00 AM 42 °F 39 °F 85% 30.23 in 17 mi East 5.8 mph - -   Overcast
8:00 AM 42 °F 38 °F 82% 30.24 in 19 mi East 4.6 mph - -   Overcast
9:00 AM 43 °F 40 °F 84% 30.25 in 19 mi East 4.6 mph - -   Overcast
10:00 AM 45 °F 41 °F 80% 30.26 in 19 mi East 3.5 mph - -   Overcast
11:00 AM 46 °F 42 °F 81% 30.26 in 19 mi East 4.6 mph - -   Overcast
12:00 PM 49 °F 43 °F 74% 30.25 in 16 mi SE 5.8 mph - -   Overcast
1:00 PM 49 °F 42 °F 69% 30.25 in 18 mi SE 3.5 mph - -   Overcast
2:00 PM 50 °F 42 °F 65% 30.23 in 18 mi ESE 2.3 mph - -   Overcast
3:00 PM 50 °F 39 °F 55% 30.21 in 19 mi WSW 8.1 mph - -   Overcast
4:00 PM 50 °F 39 °F 57% 30.20 in 19 mi West 11.5 mph - -   Overcast
5:00 PM 49 °F 39 °F 58% 30.19 in 19 mi West 11.5 mph - -   Overcast
6:00 PM 49 °F 39 °F 59% 30.19 in 18 mi WSW 11.5 mph - -   Overcast
7:00 PM 49 °F 39 °F 58% 30.18 in 19 mi WSW 11.5 mph - -   Overcast
8:00 PM 48 °F 40 °F 64% 30.17 in 18 mi SW 8.1 mph - -   Overcast
9:00 PM 48 °F 40 °F 66% 30.16 in 17 mi SW 10.4 mph - -   Overcast
11:00 PM 48 °F 41 °F 69% 30.13 in 19 mi SW 10.4 mph - -   Overcast